Location: Del Amo
(33.8464°N, 118.2104°W)
Time: 08:24:32
(UTC+00:00)

Vanguard 1 Rocket - Pass Details

Date: 13 September 2024
Orbit: 650 x 4218 km, 34.3° (Epoch: 09 October)

Event Time Altitude Azimuth Distance (km) Brightness Sun altitude
Rises 12:25:15 0° 251° (WSW) 5,690 - -15.1°
Reaches altitude 10° 12:28:15 10° 250° (WSW) 5,045 - -14.5°
Exits shadow 12:29:58 16° 250° (WSW) 4,713 10.4 -14.2°
Maximum altitude 12:44:58 85° 165° (SSE) 3,606 10.4 -11.2°
Drops below altitude 10° 13:11:31 10° 81° (E) 7,395 13.9 -5.7°
Sets 13:17:08 0° 81° (E) 8,304 15.5 -4.6°
